Location: Bremen
(53.0793°N, 8.8017°E)
Time: 02:17:54
(UTC+02:00)

A-11 Canister half - Pass Details

Date: 26 April 2024
Orbit: 1525 x 1683 km, 47.3° (Epoch: 19 May)

Event Time Altitude Azimuth Distance (km) Brightness Sun altitude
Exits shadow 04:26:17 - 189° (S) 4,319 10.9 -12.6°
Reaches altitude 10° 04:28:14 10° 181° (S) 3,858 10.7 -12.4°
Maximum altitude 04:35:29 24° 133° (SE) 2,957 10.5 -11.6°
Drops below altitude 10° 04:42:50 10° 86° (E) 3,939 12.0 -10.7°
Sets 04:46:49 0° 74° (ENE) 4,939 13.0 -10.3°
